Regional Weather Roundup
Issued by NWS Charleston, SC

Current Version | Previous Version | Graphics & Text | Print | Product List | Glossary On
Versions: 1 2 3 4 5 6 7 8 9 10 11 12 13 14 15 16 17 18 19 20 21 22 23 24 25 26 27 28 29 30 31 32 33 34 35 36 37 38 39 40 41 42 43 44 45 46 47 48 49 50
000 ASUS42 KCHS 020312 RWRCHS REGIONAL WEATHER ROUNDUP NATIONAL WEATHER SERVICE CHARLESTON SC 1100 PM EDT TUE SEP 01 2015 NOTE: "FAIR" INDICATES FEW OR NO CLOUDS BELOW 12,000 FEET WITH NO SIGNIFICANT WEATHER AND/OR OBSTRUCTIONS TO VISIBILITY. NOT ALL STATIONS ARE QUALITY CONTROLLED BY THE NATIONAL WEATHER SERVICE. USE DATA WITH CAUTION...ESPECIALLY DEWPOINT OBSERVATIONS. SCZ027-030-031-034>040-042>050-020400- ...SOUTHEAST SOUTH CAROLINA... CITY SKY/WX TMP DP RH WIND PRES REMARKS N CHARLESTON MOCLDY 78 74 87 CALM 30.08F WATERFRONT PRK N/A 81 77 88 VRB3 30.06R MOUNT PLEASANT LGT RAIN 77 75 94 CALM 30.09S JOHNS ISLAND FAIR 81 77 89 CALM 30.08F PINOPOLIS N/A 81 75 83 CALM 30.01S MONCKS CORNER FAIR 77 73 88 CALM 30.09S SUMMERVILLE FAIR 77 77 100 CALM 30.10S BEAUFORT MCAS CLOUDY 80 76 87 S6 30.09S BEAUFORT ARPT MOCLDY 79 77 94 CALM 30.08F HILTON HEAD IS MOCLDY 79 77 94 S3 30.10S WALTERBORO CLOUDY 79 73 83 CALM 30.09F ALLENDALE FAIR 77 73 88 CALM 30.09R ...SOUTHERN MIDLANDS AND PEE DEE... CITY SKY/WX TMP DP RH WIND PRES REMARKS GEORGETOWN NOT AVBL KINGSTREE NOT AVBL ORANGEBURG PTCLDY 76 72 87 S5 30.09S BARNWELL FAIR 79 73 83 S3 30.10R AIKEN FAIR 73 64 73 CALM 30.13R MANNING FAIR 79 72 78 S3 30.09S COLUMBIA PTCLDY 77 70 79 S6 30.07S SUMTER PTCLDY 78 70 78 SW3 30.06S FLORENCE PTCLDY 78 72 81 S5 30.08R MYRTLE BEACH NOT AVBL N MYRTLE BEACH MOCLDY 79 73 82 W5 30.08S $$ GAZ063-065-086>088-099>101-113>116-118-119-134>141-150-020400- ...SOUTHEAST GEORGIA... CITY SKY/WX TMP DP RH WIND PRES REMARKS SAVANNAH ARPT CLOUDY 80 75 84 SE5 30.09S HUNTER AAF MOCLDY 78 78 100 E2 30.07S FORT STEWART MOCLDY 77 75 91 S1 30.07S STATESBORO CLOUDY 79 79 100 S3 30.09R SYLVANIA CLOUDY 79 77 94 CALM 30.10R CLAXTON NOT AVBL ...CSRA...CENTRAL AND FAR SOUTHEAST GEORGIA... CITY SKY/WX TMP DP RH WIND PRES REMARKS THOMSON CLEAR 74 74 100 CALM 30.14R AUGUSTA-BUSH CLEAR 72 71 97 CALM 30.08R AUGUSTA-DANIEL CLEAR 80 71 74 CALM 30.10R SWAINSBORO CLOUDY 81 72 74 CALM 30.10R VIDALIA CLOUDY 79 75 89 S3 30.09S EASTMAN FAIR 76 76 100 CALM 30.12R HAZLEHURST MOCLDY 80 79 98 SE3 30.08S ALMA MOCLDY 77 75 93 E3 30.09R WAYCROSS MOCLDY 78 78 100 E3 30.10R JESUP FAIR 79 79 100 CALM 30.10R BAXLEY FAIR 79 77 94 SE3 30.09R BRUNSWICK MOCLDY 73 73 100 CALM 30.10S SAINT SIMONS MOCLDY 78 76 93 CALM 30.09R $$ SCZ027-028-034-036>038-045-046-048>050-GAZ119-141-020400- ...LAKE AND SUPPLEMENTAL COASTAL OBSERVATIONS... STATION/POSITION TIME TEMP WIND PRES WAVE SWELL AIR SEA DIR/SP/G HT/PER HT/PER/DIR (UTC) (F) (DEG/KT/KT) (MB) (FT/S) (FT/S/D) UPR LAKE MARION NOT AVBL WINYAH BAY 0145 79 240/ 2 1018.0 LAKE MURRAY 0200 81 CALM / 1 1017.9S ACE BASIN NERRS NOT AVBL FORT PULASKI 0200 80 83 130/ 3/ 5 1019.5R SAPELO ISLAND 0200 77 30/ 2 1019.0R $$ ANZ835-935-AMZ111-154-330-350-352-354-370-450-454-472-020400- ...C-MAN AND BUOY OBSERVATIONS... STATION/POSITION TIME TEMP WIND PRES WAVE SWELL AIR SEA DIR/SP/G HT/PER HT/PER/DIR (UTC) (F) (DEG/KT/KT) (MB) (FT/S) (FT/S/D) BUOY 41004 0250 82 83 140/ 8/ 8 1018.4F 2/ 7 2/ 7 BUOY 41008 0250 82 84 130/ 4/ 6 1019.1R 2/ 8 2/100/ 8 FOLLY BEACH CMAN 0200 82 170/ 9/ 10 1018.9R CAPERS NEARSHORE 0208 82 180/ 8/ 12 1018.8R FRIPP NEARSHORE 0200 81 140/ 8/ 10 1018.5 STATION/POSITION TIME TEMP WIND PRES WAVE SWELL AIR SEA DIR/SP/G HT/PER HT/PER/DIR (UTC) (F) (DEG/KT/KT) (MB) (FT/S) (FT/S/D) 5E ST. MARYS GA 0221 85 N/A 2/ 9 FRYING PAN BUOY 0250 82 81 210/ 6/ 8 1019.1S 1/ 9 2/150/ 9 BUOY 41025 0250 80 84 300/ 6/ 8 1018.0F 2/10 2/120/10 CAPE LOOKOUT NC 0200 79 260/ 7/ 8 1017.9R BUOY 41002 0250 84 85 250/ 8/ 10 1018.6F 3/ 6 3/230/ 6 BUOY 41010 0220 85 86 130/ 4/ 6 1019.2R ST AUGUSTINE FL 0300 82 83 200/ 4/ 4 1019.7R $$

USA.gov is the U.S. government's official web portal to all federal, state and local government web resources and services.